Presure
156 149 161 176 154 175 141 154 151 143 150 135 135 135 135 131 131 135 129 132 164 131 156 134 142 134 137 148 149 165 155 135 133 164 168 153 150 202 122 114 181 181 81 190 122
170 179 147 170 157 179 175 138 146 143 133 129 128 126 127 126 126 125 131 134 137 130 115 119 122 133 136 155 152 147 149 153 154 172 133 156 145 145 125 151 154 156 127 145 191
168 153 184 165 175 170 163 174 145 134 135 132 130 137 139 131 140 129 141 109 126 136 121 120 140 135 124 115 140 135 158 136 139 141 135 132 131 159 147 144 186 129 189 133 120
178 167 177 153 179 171 173 199 186 136 124 132 127 130 129 135 130 123 134 129 121 140 145 135 127 151 119 132 136 140 157 118 145 167 164 140 130 107 107 142 152 186 102 149 290
177 172 162 186 176 166 153 162 161 166 132 130 133 128 136 131 127 123 132 143 146 126 134 130 127 138 129 128 134 140 135 146 141 139 148 126 210 141 151 131 142 160 164 155 135
178 178 176 186 166 173 170 168 156 187 169 175 122 127 130 137 134 122 141 129 133 130 129 126 129 126 152 111 124 133 118 148 154 124 141 148 153 155 163 162 157 147 210 156 423
172 174 180 210 205 199 225 215 219 206 199 145 151 197 135 138 124 131 136 132 134 136 136 117 135 133 126 127 131 126 140 121 128 137 159 130 128 146 125 135 185 158 133 191 436
167 199 204 197 170 201 200 201 203 203 206 210 210 203 214 157 152 126 140 188 127 128 134 128 126 145 128 142 137 130 147 138 143 128 110 121 141 143 189 174 206 158 159 117 155
192 190 193 192 188 189 179 191 189 190 195 198 195 197 208 202 207 208 147 152 150 123 126 135 129 129 127 112 129 124 136 136 130 122 136 131 138 122 130 140 142 152 142 181 273
183 187 188 176 187 192 179 138 184 144 187 194 191 192 200 192 206 189 191 193 163 134 130 166 192 145 133 122 137 126 138 117 128 111 147 129 141 144 202 134 147 242 131 131 268
188 187 182 184 201 197 182 182 185 194 183 185 191 192 196 193 194 206 202 192 195 191 192 191 199 125 152 193 134 209 134 126 119 115 118 121 133 196 126 227 172 217 245 187 135
175 183 160 169 183 208 175 210 188 189 179 185 204 201 183 194 199 193 194 201 200 194 193 197 192 197 202 205 213 212 164 198 215 125 122 125 197 114 128 224 129 194 238 154 295
200 204 202 206 215 211 213 217 219 215 219 206 212 211 214 215 215 218 216 209 204 191 194 210 204 196 205 208 204 210 215 210 211 217 216 118 179 221 218 222 143 237 229 194 300
221 214 219 205 202 194 198 190 200 235 234 207 216 215 214 215 216 221 218 213 229 227 227 222 230 197 202 216 201 223 221 199 211 214 218 221 210 216 216 225 240 230 218 213 210
213 202 204 227 228 226 238 237 230 228 234 226 228 228 221 215 208 215 221 215 216 215 217 217 218 220 223 214 223 207 223 225 226 223 200 203 211 218 215 214 231 234 243 216 203
212 209 230 239 174 226 213 211 236 225 244 244 248 248 252 254 245 244 239 235 226 229 225 224 225 221 231 220 214 212 215 208 210 223 218 213 223 208 218 215 228 233 256 214 212
176 179 216 187 170 190 204 228 213 223 209 209 227 185 226 246 210 223 233 235 238 255 247 239 238 235 231 231 233 229 232 228 227 221 222 212 216 212 209 228 205 222 234 219 192
216 195 204 216 219 243 198 201 198 222 234 210 209 218 217 214 224 230 224 226 222 245 252 212 252 239 230 228 228 230 230 234 232 238 239 227 234 211 225 240 218 209 220 238 209
210 197 193 196 213 255 216 202 204 232 239 241 234 230 227 229 225 218 228 243 247 230 229 234 243 247 221 239 249 249 239 242 246 241 240 241 237 241 237 234 244 237 212 226 238
216 224 228 167 189 236 138 247 239 216 240 233 228 234 238 245 235 229 231 245 244 248 251 233 229 238 241 250 257 240 232 233 239 243 260 261 249 248 234 233 230 240 219 220 234
215 207 243 243 252 240 248 221 251 243 244 246 252 258 262 261 253 244 239 232 263 251 261 250 246 254 239 254 242 246 261 246 245 249 249 248 249 246 253 257 257 263 269 230 213
232 240 262 244 264 256 265 259 257 266 264 254 251 267 265 261 274 261 253 251 271 268 265 250 237 257 251 227 241 261 246 266 254 241 242 248 267 263 251 245 239 245 244 258 214
244 267 278 284 275 274 289 284 262 281 278 281 278 277 276 276 279 286 272 266 266 276 274 266 266 268 286 285 238 271 249 264 269 257 248 252 257 242 249 254 249 243 249 260 273
251 284 303 308 315 302 307 294 284 317 312 303 286 291 301 299 309 295 291 292 286 288 290 307 299 300 309 304 282 290 293 279 279 262 255 252 236 259 245 254 264 260 248 249 245
322 311 307 333 338 345 340 335 329 324 328 324 325 323 320 324 325 326 332 328 322 318 317 319 328 329 338 345 288 316 326 306 280 284 293 283 283 255 270 242 253 263 254 245 239
271 332 366 339 319 298 304 388 477 486 488 473 464 468 291 299 295 291 289 281 299 299 298 293 304 314 324 165 324 323 329 329 336 333 315 331 277 266 278 268 264 242 252 262 246
362 338 322 308 462 492 478 462 453 450 448 440 448 448 452 443 440 440 445 448 455 465 474 475 462 479 465 324 298 103 317 319 313 321 337 333 320 296 298 286 282 242 257 256 267
Wind_Speed
30 30 27 26 29 25 31 31 31 32 31 34 35 36 36 37 38 39 37 40 36 41 35 41 41 41 39 39 40 35 36 41 38 35 40 39 42 37 31 27 40 39 18 52 45
30 29 34 29 33 29 30 37 37 37 38 38 38 38 39 39 39 38 42 44 41 42 36 36 38 44 44 38 38 37 36 37 38 37 39 48 41 44 35 48 37 52 40 43 53
34 36 32 34 34 35 37 33 42 41 43 43 42 43 44 44 45 44 45 36 42 49 40 38 46 47 38 34 41 42 38 41 41 39 38 38 37 57 52 47 42 41 51 41 42
35 37 36 41 37 39 40 34 37 46 43 46 45 47 47 47 42 43 48 48 42 50 48 50 49 45 42 47 44 44 41 40 39 39 38 42 39 38 40 45 59 38 41 51 64
38 41 44 39 44 45 48 46 47 44 51 49 52 50 53 51 49 47 52 52 52 50 53 53 51 53 49 46 46 46 46 45 42 43 43 41 52 50 45 39 54 42 48 51 47
44 45 46 49 50 48 50 51 53 44 52 47 50 53 55 55 57 50 58 55 57 57 56 54 55 52 53 43 48 50 42 48 47 41 46 45 40 48 43 48 49 45 42 48 28
50 51 53 53 50 51 43 43 42 42 45 60 60 50 61 61 55 60 62 60 61 62 63 51 60 59 55 55 56 53 53 46 46 50 48 45 49 51 46 39 41 49 44 42 23
55 60 54 54 54 50 49 47 45 47 47 46 47 53 50 65 64 63 65 60 63 63 65 64 61 62 59 61 60 58 56 54 54 54 42 47 48 53 48 52 44 47 54 51 48
61 60 56 55 56 54 53 53 53 52 52 52 54 57 52 59 59 59 71 71 71 61 62 68 65 67 63 49 58 57 62 58 55 52 56 55 51 55 49 54 51 44 57 46 29
67 66 64 61 63 61 58 54 60 58 60 61 62 63 60 64 64 73 72 71 72 73 68 70 69 74 68 64 67 64 66 57 59 52 59 55 56 56 50 59 50 44 54 49 48
68 68 67 66 66 66 68 67 67 65 69 70 69 70 70 70 71 69 73 77 75 79 78 78 75 67 72 77 69 67 70 68 61 59 61 60 61 57 63 55 52 41 42 43 55
73 69 60 68 64 70 66 71 72 70 67 75 76 73 79 75 76 78 81 77 80 83 83 81 84 84 81 80 78 78 73 74 73 66 66 63 68 56 65 57 59 44 41 58 27
77 78 78 77 75 75 75 76 77 75 71 68 78 78 80 81 80 80 82 83 83 85 84 80 84 87 83 82 82 80 78 79 75 74 72 64 67 66 64 59 60 31 37 34 25
76 76 75 79 79 78 79 73 79 80 78 76 76 81 83 84 84 84 84 85 86 84 82 78 81 87 86 82 86 77 78 82 77 76 73 70 66 67 63 53 41 32 34 32 28
75 80 80 75 79 79 82 80 80 81 82 79 78 82 87 89 87 89 90 87 87 87 86 84 85 85 83 86 80 86 78 78 77 76 77 77 66 67 64 60 45 37 29 38 36
62 63 66 69 73 76 82 80 79 79 80 78 73 76 81 84 87 92 98 98 99 98 96 95 90 88 91 89 88 84 87 89 85 78 74 74 69 65 65 62 51 39 31 38 38
78 77 72 74 65 71 78 87 87 86 85 84 81 83 86 84 82 84 85 85 88 92 96 97 95 92 91 91 92 92 91 89 87 86 81 79 73 67 71 59 62 51 35 41 50
72 84 80 80 83 81 91 92 92 89 90 90 95 95 96 93 95 95 95 96 90 94 92 80 90 99 94 92 96 94 94 92 92 91 89 81 75 73 70 65 62 60 48 38 52
84 91 93 95 92 85 95 99 87 88 92 95 98 102 106 101 102 99 102 101 101 101 100 97 93 94 85 92 97 98 95 101 102 95 88 83 80 76 74 69 60 57 62 50 49
91 91 87 79 79 94 64 92 96 90 99 97 99 102 106 108 105 105 108 108 107 105 107 102 86 98 95 95 98 94 90 93 96 91 95 86 86 82 77 73 64 63 65 61 55
94 89 106 104 99 96 98 88 101 102 107 107 113 108 107 111 113 112 109 99 112 109 110 108 105 103 102 99 101 102 102 101 102 97 94 84 79 77 77 75 73 66 58 66 62
108 111 110 104 102 102 102 107 108 112 116 113 109 118 115 113 115 119 117 118 118 113 116 105 94 100 105 85 107 105 103 104 108 91 92 86 85 83 80 76 71 68 66 61 73
110 110 102 98 102 102 99 103 104 115 117 118 117 118 118 118 117 115 118 117 119 119 119 118 117 108 108 107 97 109 109 108 108 106 92 90 76 79 78 82 79 75 70 65 63
108 100 92 89 90 91 94 98 103 103 106 111 114 117 115 116 116 116 118 121 120 120 121 118 120 120 114 108 108 110 108 106 107 99 97 94 71 89 82 82 83 80 71 68 65
94 92 94 97 91 91 91 93 94 96 98 99 100 104 107 106 107 108 107 107 108 109 110 112 112 111 110 109 105 110 107 104 105 100 106 91 92 88 86 85 85 81 77 70 71
95 99 96 91 89 89 93 99 56 41 36 41 44 36 103 104 106 103 106 106 108 110 109 108 111 110 106 42 109 106 104 103 98 94 100 93 84 82 83 85 89 71 77 78 76
104 100 95 92 74 48 45 48 49 48 44 45 40 37 31 34 36 35 31 28 25 30 34 39 49 40 69 92 110 28 95 94 88 91 93 88 83 86 86 82 81 80 84 78 79
Wind_Direction
266 259 268 287 256 277 248 249 244 235 235 228 228 226 226 230 231 229 233 230 237 229 235 233 228 233 234 231 233 239 239 245 246 252 246 253 255 260 259 250 263 267 217 272 248
284 296 258 275 260 285 273 242 241 236 234 238 239 239 238 238 240 242 239 237 237 239 240 242 242 239 238 241 243 242 243 243 245 251 249 242 261 263 254 262 251 266 250 258 271
281 264 297 270 282 275 259 270 243 241 238 242 241 238 236 239 237 241 240 240 240 238 246 249 235 236 248 250 240 243 249 245 246 248 249 254 256 238 257 264 272 245 278 254 251
281 277 284 263 284 275 276 296 278 245 255 245 247 245 245 242 248 251 243 245 248 241 241 241 244 250 245 244 245 245 250 247 249 253 245 254 253 247 252 262 255 275 247 263 315
281 279 271 286 277 267 257 264 258 257 250 254 249 251 246 247 248 253 249 247 244 252 244 246 250 244 245 246 247 245 246 248 247 248 246 249 274 254 265 263 261 262 268 261 253
291 285 282 291 272 272 270 267 259 272 263 265 261 256 253 248 249 254 248 250 248 249 249 249 248 250 251 245 246 245 253 246 250 253 248 252 251 259 252 261 248 251 291 265 275
287 286 289 302 300 297 295 292 287 281 274 256 257 265 255 252 258 254 251 252 250 248 247 253 251 250 252 250 249 250 246 253 250 251 251 253 259 253 263 245 270 248 261 276 279
286 298 300 296 279 294 290 289 286 282 279 274 269 266 263 258 257 257 255 257 254 254 251 253 255 250 254 248 249 248 251 247 250 254 244 258 258 256 276 277 288 245 266 254 262
293 292 291 289 285 286 280 281 278 276 276 273 268 268 267 264 264 264 257 257 255 254 255 254 255 253 253 249 250 254 250 249 251 256 249 251 255 261 264 257 247 261 261 280 233
291 291 289 286 287 285 279 267 278 268 275 274 272 270 268 265 264 266 264 262 259 255 255 260 262 254 253 253 252 253 251 253 252 256 250 255 254 268 280 260 253 302 261 265 214
289 287 288 287 286 285 282 281 278 276 277 275 272 270 267 266 264 263 262 266 264 264 264 265 265 251 256 267 252 262 250 251 250 252 255 255 254 276 258 290 261 294 305 264 264
292 288 289 290 287 285 283 280 280 277 276 277 275 271 271 268 267 266 264 261 261 263 265 262 265 264 264 264 264 264 256 262 267 250 253 252 270 254 255 286 259 276 294 253 219
292 292 291 291 289 288 285 283 279 279 277 274 275 275 273 273 271 270 270 268 266 265 263 262 261 265 262 263 264 264 264 266 267 267 268 250 262 275 279 282 259 285 283 269 216
295 293 291 291 290 289 288 283 285 282 279 276 274 271 272 272 272 270 269 269 267 266 267 266 267 265 264 263 264 263 264 266 264 263 264 265 267 270 273 279 282 273 267 266 248
288 289 290 291 288 288 289 286 283 281 281 277 274 271 270 271 273 273 270 270 269 268 268 267 266 265 264 262 264 261 265 264 261 260 266 267 263 266 268 271 272 268 263 259 257
300 301 298 298 292 290 288 284 285 283 284 282 277 274 273 270 269 268 268 268 269 267 267 267 265 266 265 264 263 263 263 261 261 262 259 257 262 259 261 263 263 259 259 244 247
298 297 299 295 296 294 291 287 288 289 285 285 278 280 278 273 276 277 272 269 268 266 265 265 266 264 264 263 263 262 262 260 261 261 260 257 257 256 258 260 262 256 241 237 236
302 291 294 299 296 292 290 292 293 285 278 288 287 280 280 281 277 272 275 273 276 268 264 266 260 261 262 265 263 263 263 264 262 262 260 258 259 254 257 259 250 255 246 230 229
297 295 293 290 293 287 291 295 292 279 276 275 274 274 275 272 273 277 272 268 266 270 271 268 262 258 263 259 261 261 264 262 263 262 260 259 260 258 258 257 253 240 249 227 224
306 310 309 287 292 289 293 279 278 276 276 274 275 273 271 268 267 271 270 267 266 264 262 267 269 263 260 256 258 260 259 259 260 260 261 260 259 261 255 254 247 248 247 236 224
307 307 310 305 298 288 287 281 276 279 279 278 278 274 271 268 267 268 270 272 266 265 263 261 263 259 263 259 259 257 256 257 258 257 260 258 258 258 258 257 258 256 247 239 231
314 309 302 302 293 293 285 285 283 275 275 277 278 272 271 270 266 265 267 271 268 264 264 260 260 258 259 260 260 257 258 254 253 256 255 254 254 255 255 253 249 250 240 236 233
309 305 298 293 288 286 283 277 278 275 275 274 272 270 269 269 267 263 265 267 267 266 264 264 265 263 261 259 259 257 255 253 252 251 254 256 255 255 252 251 250 247 244 240 236
308 304 299 300 299 291 287 280 278 279 276 273 274 272 272 271 270 267 266 266 267 267 267 266 265 266 264 261 259 259 257 256 256 255 254 253 252 252 253 251 249 247 242 237 228
314 307 306 303 300 297 292 287 283 281 278 276 274 273 271 270 269 268 267 265 264 264 264 264 263 261 262 262 261 262 259 255 255 256 256 253 251 248 247 247 246 244 240 235 231
308 311 310 306 300 294 290 295 300 297 293 292 291 290 271 270 270 269 270 269 267 265 265 265 264 263 262 235 261 257 258 258 256 253 255 252 248 249 249 244 247 238 241 239 234
317 314 311 308 307 313 308 302 299 297 294 292 291 285 281 281 279 282 282 280 270 255 254 253 256 263 257 259 259 262 258 258 259 256 252 249 248 247 247 244 243 238 239 236 236